sat.trackr.live / text

‹ back to catalog

STARLINK-1913

NORAD 47179 · 2020-088BK

PAYLOAD ACTIVE UNKNOWN

§ Identity

Operator
Country
US
Launch date
2020-11-25
Launch site
AFETR
Launch vehicle
Mass (kg)
RCS (m²)

Purposes: comms

External: N2YO · Heavens-Above · Gunter

§ Orbital elements

Epoch: 2026-05-25T04:05:02.078016Z

Period
93.94 min
Inclination
53.1595°
Eccentricity
0.0000870
Mean motion
15.32827088 rev/d
Perigee alt
466.8 km
Apogee alt
468.0 km
Semi-major
6,845.5 km
B*
8.0232e-4
RAAN
311.2383°
Arg perigee
345.2998°
Mean anomaly
14.7978°
Rev number
30,348

§ Raw data

STARLINK-19131 47179U 20088BK  26145.17016294  .00025511  00000+0  80232-3 0  99952 47179  53.1595 311.2383 0000870 345.2998  14.7978 15.32827088303482

JSON: /api/v1/satellites/47179 · /tle

For live sub-satellite position, see the globe view (requires WebGL).

§ Visibility from observer

Set your observer location to see the next 7 days of passes ≥ 10°. The values pass through the URL so the page stays shareable.

No JS? Fill the form by hand. The geolocation button needs JavaScript.